CAPE
187 188 185 166 222 194 185 268 215 411 331 275 269 312 220 95 11 0 0 2 0 0 0 0 0 0 0 0 1 0 0 0 0 0 0 0 0 0 0 0 0 0 0 0 0
292 246 220 223 220 295 178 425 260 250 387 355 253 264 210 135 18 0 0 0 0 0 0 0 0 0 0 0 3 0 0 0 0 0 0 0 0 0 0 0 0 0 0 0 0
334 325 328 275 206 286 233 317 346 249 279 422 321 293 169 103 7 0 31 159 16 0 0 0 0 0 0 0 0 9 0 3 0 0 0 0 0 0 0 0 0 0 0 0 0
411 367 430 363 284 185 220 289 397 296 303 311 320 281 159 49 0 0 73 196 52 0 0 3 0 0 0 0 0 3 0 0 10 2 0 0 0 0 0 0 0 0 0 0 0
487 396 427 428 352 252 120 193 371 324 326 266 280 230 84 36 0 0 0 196 0 0 0 0 0 0 0 0 0 0 0 1 2 2 0 0 0 0 0 0 0 0 0 0 0
495 444 277 335 362 297 158 198 219 460 309 307 304 174 67 8 0 168 134 103 0 0 0 0 2 0 0 0 0 0 0 2 4 2 0 0 0 0 0 0 0 0 0 0 0
541 486 343 263 323 247 227 210 127 459 407 302 390 159 92 0 0 208 203 74 13 0 0 0 0 0 0 0 0 0 0 6 9 0 0 0 0 0 0 0 0 0 0 0 0
199 394 286 247 247 302 177 201 310 452 432 340 354 136 49 1 15 166 115 56 32 3 6 16 0 0 0 0 0 0 0 0 0 0 1 0 0 0 0 0 0 0 0 0 0
232 289 208 180 192 284 204 118 249 494 468 291 177 139 52 15 8 92 52 42 58 48 26 32 9 0 0 0 0 1 0 0 0 0 0 0 0 0 0 0 0 0 0 0 0
262 222 229 219 168 310 240 163 213 300 174 104 100 161 9 4 2 15 79 68 60 83 66 59 22 0 1 8 0 0 0 0 0 0 0 0 0 0 0 0 0 0 0 0 0
305 314 261 226 191 398 216 104 55 59 53 1 2 0 3 2 39 34 47 67 62 53 30 38 13 0 0 0 0 0 0 0 0 0 0 0 0 0 0 0 0 0 0 0 0
151 331 255 224 325 368 83 0 0 0 45 20 8 25 35 44 45 49 49 45 40 7 32 30 15 0 0 0 0 0 0 0 0 0 0 0 0 0 0 0 0 0 0 0 0
235 311 233 274 294 217 3 0 0 0 11 38 47 43 59 41 18 11 52 47 35 42 20 5 2 11 1 0 0 0 0 0 0 0 0 0 0 0 0 0 0 0 0 0 0
267 265 268 239 107 45 27 0 16 0 0 1 21 26 31 47 24 9 83 57 34 23 32 26 0 20 8 0 0 0 0 9 40 3 0 0 0 0 0 0 0 0 0 0 0
262 291 339 88 0 20 0 19 52 25 0 0 4 19 42 28 0 10 93 66 7 14 49 9 15 26 12 0 0 0 0 0 21 40 0 0 0 0 0 0 0 0 0 0 0
204 260 192 3 0 9 35 61 58 0 0 1 6 10 24 32 6 22 59 43 41 28 11 0 7 6 0 0 0 0 32 18 32 21 0 0 0 0 0 0 0 0 0 0 0
204 199 52 0 0 9 52 59 24 0 0 0 2 20 0 10 44 10 9 45 18 19 0 0 0 0 32 9 7 28 32 0 0 0 0 0 0 0 0 0 0 0 0 0 0
203 161 11 0 0 51 68 43 0 0 0 0 9 1 0 0 0 0 7 33 12 8 0 0 0 0 14 18 0 0 12 0 0 0 0 0 0 0 0 0 0 0 0 0 0
152 68 5 0 21 65 25 0 0 0 0 6 14 2 0 0 0 14 0 0 2 4 0 0 0 2 0 0 1 0 0 0 0 0 0 0 0 0 0 0 0 0 0 0 0
55 8 2 26 72 73 1 2 3 0 0 0 0 7 0 0 0 0 0 0 0 0 4 1 0 0 0 5 8 1 0 6 10 0 0 0 0 0 0 0 0 0 0 0 0
8 6 21 46 58 18 8 5 3 0 0 0 0 0 0 0 0 0 0 0 0 0 8 19 8 0 0 0 0 3 0 0 2 0 0 0 0 0 0 0 0 0 0 0 0
2 0 60 0 7 4 0 0 0 0 0 0 0 0 0 0 4 0 0 0 0 0 10 6 0 0 0 0 4 36 2 0 0 0 0 0 0 0 0 0 0 0 0 0 0
0 0 46 0 0 0 0 0 0 0 0 0 0 0 0 0 0 5 3 1 26 7 5 22 0 0 0 0 0 20 0 0 0 0 0 0 0 0 0 0 0 0 0 0 0
0 1 4 0 0 0 0 0 0 0 0 0 0 0 0 0 0 0 0 0 12 5 13 87 16 0 0 0 1 0 0 0 0 0 0 0 0 0 0 0 0 0 0 0 0
0 0 0 0 0 0 0 0 0 0 0 0 0 0 0 0 0 0 0 0 7 23 21 106 27 0 0 0 0 0 0 7 3 0 0 0 0 0 0 0 0 0 0 0 0
0 0 0 0 0 0 0 0 0 0 0 0 0 0 0 0 0 0 0 0 3 2 1 12 9 22 0 0 0 1 0 22 18 0 0 0 0 0 0 0 0 0 0 0 0
0 0 0 0 0 0 0 0 0 0 0 0 0 0 0 0 0 0 0 0 0 4 41 0 3 0 0 0 0 0 0 0 0 0 0 0 0 0 0 0 0 0 0 0 0
CIN
-18 -0 -0 -0 -0 -0 -3 -8 -21 -2 -6 -10 -13 -9 -10 -13 -24 -0 -0 -5 -0 -0 -0 -0 -0 -0 -0 -0 -6 -0 -0 -0 -0 -0 -0 -0 -0 -0 -0 -0 -0 -0 -0 -0 -0
-12 -2 -0 -0 -0 -0 -1 -0 -18 -18 -6 -7 -13 -15 -8 -6 -16 -0 -0 -0 -0 -0 -0 -0 -0 -0 -0 -0 -1 -0 -0 -0 -0 -0 -0 -0 -0 -0 -0 -0 -0 -0 -0 -0 -0
-7 -0 -0 -0 -0 -0 -0 -0 -11 -19 -14 -7 -9 -13 -15 -5 -11 -0 -106 -65 -63 -0 -0 -0 -0 -0 -0 -0 -0 -0 -0 -10 -0 -0 -0 -0 -0 -0 -0 -0 -0 -0 -0 -0 -0
-0 -1 -0 -0 -0 -0 -0 -0 -2 -16 -15 -11 -9 -13 -14 -2 -0 -0 -80 -40 -83 -0 -0 -11 -0 -0 -0 -0 -0 -3 -0 -0 -0 -0 -0 -0 -0 -0 -0 -0 -0 -0 -0 -0 -0
-0 -0 -2 -0 -0 -0 -0 -0 -0 -7 -16 -21 -11 -8 -4 -0 -0 -0 -0 -15 -0 -0 -0 -0 -0 -0 -0 -0 -0 -0 -0 -1 -5 -0 -0 -0 -0 -0 -0 -0 -0 -0 -0 -0 -0
-1 -1 -7 -2 -0 -0 -0 -0 -0 -0 -18 -20 -12 -8 -0 -0 -0 -58 -87 -38 -0 -0 -0 -0 -10 -0 -0 -0 -0 -0 -0 -0 -2 -0 -0 -0 -0 -0 -0 -0 -0 -0 -0 -0 -0
-1 -1 -7 -8 -0 -1 -2 -0 -1 -1 -8 -24 -10 -6 -0 -0 -0 -58 -53 -62 -90 -0 -0 -0 -0 -0 -0 -0 -0 -0 -0 -0 -0 -0 -0 -0 -0 -0 -0 -0 -0 -0 -0 -0 -0
-4 -2 -7 -8 -1 -0 -9 -0 -1 -1 -5 -17 -12 -0 -1 -2 -12 -28 -49 -56 -44 -54 -52 -53 -4 -0 -0 -0 -0 -0 -0 -0 -0 -0 -6 -0 -0 -0 -0 -0 -0 -0 -0 -0 -0
-8 -4 -32 -33 -8 -0 -0 -15 -3 -2 -8 -15 -0 -0 -0 -6 -4 -13 -29 -50 -59 -49 -48 -29 -2 -0 -0 -0 -0 -0 -0 -0 -0 -0 -0 -0 -0 -0 -0 -0 -0 -0 -0 -0 -0
-11 -6 -32 -29 -16 -1 -1 -6 -9 -7 -7 -1 -0 -0 -1 -3 -2 -3 -17 -33 -27 -29 -7 -13 -7 -0 -1 -0 -0 -0 -0 -0 -0 -0 -0 -0 -0 -0 -0 -0 -0 -0 -0 -0 -0
-7 -4 -22 -40 -18 -0 -4 -2 -0 -0 -0 -1 -0 -0 -56 -1 -23 -1 -14 -14 -18 -14 -0 -0 -0 -0 -0 -0 -0 -0 -0 -0 -0 -0 -0 -0 -0 -0 -0 -0 -0 -0 -0 -0 -0
-8 -1 -21 -38 -4 -0 -17 -0 -0 -0 -0 -5 -27 -10 -44 -10 -1 -4 -9 -3 -1 -0 -0 -0 -0 -0 -0 -0 -0 -0 -0 -0 -0 -0 -0 -0 -0 -0 -0 -0 -0 -0 -0 -0 -0
-3 -2 -5 -18 -4 -1 -19 -0 -0 -0 -3 -2 -13 -2 -8 -7 -7 -17 -3 -2 -2 -0 -0 -0 -1 -0 -3 -0 -0 -0 -0 -0 -0 -0 -0 -0 -0 -0 -0 -0 -0 -0 -0 -0 -0
-5 -2 -4 -9 -4 -1 -1 -0 -9 -0 -0 -0 -0 -3 -13 -20 -13 -28 -2 -4 -0 -0 -1 -1 -1 -7 -0 -0 -0 -0 -0 -23 -1 -0 -0 -0 -0 -0 -0 -0 -0 -0 -0 -0 -0
-11 -1 -0 -17 -0 -0 -0 -12 -12 -13 -0 -0 -1 -23 -28 -11 -1 -13 -3 -0 -0 -9 -3 -2 -0 -0 -4 -0 -0 -0 -0 -0 -27 -4 -0 -0 -0 -0 -0 -0 -0 -0 -0 -0 -0
-18 -1 -4 -1 -0 -1 -31 -37 -20 -0 -0 -0 -5 -7 -5 -3 -13 -28 -1 -5 -4 -0 -0 -0 -0 -0 -1 -0 -0 -0 -0 -7 -5 -2 -0 -0 -0 -0 -0 -0 -0 -0 -0 -0 -0
-1 -3 -9 -0 -0 -24 -33 -15 -0 -0 -0 -0 -0 -0 -0 -1 -4 -19 -1 -0 -1 -0 -0 -0 -0 -0 -0 -0 -0 -4 -1 -0 -0 -0 -0 -0 -0 -0 -0 -0 -0 -0 -0 -0 -0
-2 -6 -0 -0 -13 -55 -18 -1 -0 -0 -0 -0 -4 -0 -0 -0 -0 -1 -8 -0 -1 -4 -0 -0 -0 -0 -2 -0 -0 -0 -0 -0 -0 -0 -0 -0 -0 -0 -0 -0 -0 -0 -0 -0 -0
-7 -0 -3 -0 -74 -22 -10 -0 -0 -0 -0 -2 -2 -0 -0 -0 -0 -2 -0 -0 -0 -0 -0 -0 -0 -11 -0 -0 -0 -0 -0 -0 -0 -0 -0 -0 -0 -0 -0 -0 -0 -0 -0 -0 -0
-3 -0 -1 -19 -27 -5 -1 -1 -4 -0 -0 -0 -0 -0 -0 -0 -0 -0 -0 -0 -0 -0 -0 -6 -0 -0 -0 -3 -1 -1 -0 -0 -0 -0 -0 -0 -0 -0 -0 -0 -0 -0 -0 -0 -0
-0 -0 -3 -26 -62 -7 -0 -0 -6 -0 -0 -0 -0 -0 -0 -0 -0 -0 -0 -0 -0 -0 -0 -2 -5 -0 -0 -0 -0 -0 -0 -0 -0 -0 -0 -0 -0 -0 -0 -0 -0 -0 -0 -0 -0
-0 -0 -0 -14 -6 -8 -1 -0 -0 -0 -0 -0 -0 -0 -0 -0 -0 -0 -0 -0 -0 -0 -2 -0 -0 -0 -0 -0 -5 -16 -0 -1 -0 -0 -0 -0 -0 -0 -0 -0 -0 -0 -0 -0 -0
-0 -0 -0 -1 -0 -0 -10 -0 -0 -0 -0 -0 -0 -0 -0 -0 -0 -0 -1 -2 -4 -10 -3 -3 -0 -0 -0 -0 -0 -3 -1 -0 -0 -0 -0 -0 -0 -0 -0 -0 -0 -0 -0 -0 -0
-0 -0 -2 -0 -0 -0 -0 -0 -0 -0 -0 -0 -0 -0 -0 -0 -0 -0 -0 -1 -20 -9 -25 -6 -2 -0 -0 -0 -0 -0 -0 -0 -0 -0 -0 -0 -0 -0 -0 -0 -0 -0 -0 -0 -0
-0 -0 -0 -0 -0 -0 -0 -0 -0 -0 -0 -0 -0 -0 -0 -0 -0 -0 -0 -5 -26 -20 -11 -2 -0 -0 -0 -0 -0 -0 -0 -0 -0 -0 -0 -0 -0 -0 -0 -0 -0 -0 -0 -0 -0
-0 -0 -0 -0 -0 -0 -0 -0 -0 -0 -0 -0 -0 -0 -0 -0 -0 -0 -0 -0 -1 -3 -2 -4 -1 -2 -0 -0 -2 -2 -0 -0 -0 -0 -0 -0 -0 -0 -0 -0 -0 -0 -0 -0 -0
-0 -0 -0 -0 -0 -0 -0 -0 -0 -0 -0 -0 -0 -0 -0 -0 -0 -0 -0 -0 -0 -3 -9 -0 -2 -0 -0 -1 -0 -0 -0 -0 -0 -0 -0 -0 -0 -0 -0 -0 -0 -0 -0 -0 -0
Wind_Speed
45 46 50 52 53 59 60 56 47 51 53 58 57 58 54 nan nan nan nan nan nan nan nan nan nan nan nan nan nan nan nan nan nan nan nan nan nan nan nan nan nan nan nan nan nan
45 45 48 49 51 55 57 55 51 48 47 54 58 62 59 61 nan nan nan nan nan nan nan nan nan nan nan nan nan nan nan nan nan nan nan nan nan nan nan nan nan nan nan nan nan
43 44 46 45 49 52 55 53 52 47 46 51 55 61 59 58 nan nan nan 46 nan nan nan nan nan nan nan nan nan nan nan nan nan nan nan nan nan nan nan nan nan nan nan nan nan
46 43 44 43 45 49 52 51 51 47 45 44 48 57 58 nan nan nan nan 43 nan nan nan nan nan nan nan nan nan nan nan nan nan nan nan nan nan nan nan nan nan nan nan nan nan
42 42 41 43 43 47 49 50 51 48 46 41 43 51 nan nan nan nan nan 46 nan nan nan nan nan nan nan nan nan nan nan nan nan nan nan nan nan nan nan nan nan nan nan nan nan
38 40 40 44 43 44 47 47 48 48 43 43 43 49 nan nan nan 50 60 55 nan nan nan nan nan nan nan nan nan nan nan nan nan nan nan nan nan nan nan nan nan nan nan nan nan
37 40 41 42 44 43 43 45 47 48 46 39 45 46 nan nan nan 48 47 nan nan nan nan nan nan nan nan nan nan nan nan nan nan nan nan nan nan nan nan nan nan nan nan nan nan
35 35 40 46 45 46 45 46 47 47 47 44 44 53 nan nan nan 51 48 nan nan nan nan nan nan nan nan nan nan nan nan nan nan nan nan nan nan nan nan nan nan nan nan nan nan
37 39 39 47 47 47 49 49 49 48 47 48 56 50 nan nan nan nan nan nan nan nan nan nan nan nan nan nan nan nan nan nan nan nan nan nan nan nan nan nan nan nan nan nan nan
39 41 39 48 49 50 51 52 52 55 62 62 60 55 nan nan nan nan nan nan nan nan nan nan nan nan nan nan nan nan nan nan nan nan nan nan nan nan nan nan nan nan nan nan nan
40 41 36 46 50 54 58 62 nan nan nan nan nan nan nan nan nan nan nan nan nan nan nan nan nan nan nan nan nan nan nan nan nan nan nan nan nan nan nan nan nan nan nan nan nan
39 40 39 45 49 51 nan nan nan nan nan nan nan nan nan nan nan nan nan nan nan nan nan nan nan nan nan nan nan nan nan nan nan nan nan nan nan nan nan nan nan nan nan nan nan
41 40 39 44 45 55 nan nan nan nan nan nan nan nan nan nan nan nan nan nan nan nan nan nan nan nan nan nan nan nan nan nan nan nan nan nan nan nan nan nan nan nan nan nan nan
39 41 40 45 54 nan nan nan nan nan nan nan nan nan nan nan nan nan nan nan nan nan nan nan nan nan nan nan nan nan nan nan nan nan nan nan nan nan nan nan nan nan nan nan nan
44 44 45 nan nan nan nan nan nan nan nan nan nan nan nan nan nan nan nan nan nan nan nan nan nan nan nan nan nan nan nan nan nan nan nan nan nan nan nan nan nan nan nan nan nan
45 43 43 nan nan nan nan nan nan nan nan nan nan nan nan nan nan nan nan nan nan nan nan nan nan nan nan nan nan nan nan nan nan nan nan nan nan nan nan nan nan nan nan nan nan
43 39 nan nan nan nan nan nan nan nan nan nan nan nan nan nan nan nan nan nan nan nan nan nan nan nan nan nan nan nan nan nan nan nan nan nan nan nan nan nan nan nan nan nan nan
40 41 nan nan nan nan nan nan nan nan nan nan nan nan nan nan nan nan nan nan nan nan nan nan nan nan nan nan nan nan nan nan nan nan nan nan nan nan nan nan nan nan nan nan nan
45 nan nan nan nan nan nan nan nan nan nan nan nan nan nan nan nan nan nan nan nan nan nan nan nan nan nan nan nan nan nan nan nan nan nan nan nan nan nan nan nan nan nan nan nan
nan nan nan nan nan nan nan nan nan nan nan nan nan nan nan nan nan nan nan nan nan nan nan nan nan nan nan nan nan nan nan nan nan nan nan nan nan nan nan nan nan nan nan nan nan
nan nan nan nan nan nan nan nan nan nan nan nan nan nan nan nan nan nan nan nan nan nan nan nan nan nan nan nan nan nan nan nan nan nan nan nan nan nan nan nan nan nan nan nan nan
nan nan nan nan nan nan nan nan nan nan nan nan nan nan nan nan nan nan nan nan nan nan nan nan nan nan nan nan nan nan nan nan nan nan nan nan nan nan nan nan nan nan nan nan nan
nan nan nan nan nan nan nan nan nan nan nan nan nan nan nan nan nan nan nan nan nan nan nan nan nan nan nan nan nan nan nan nan nan nan nan nan nan nan nan nan nan nan nan nan nan
nan nan nan nan nan nan nan nan nan nan nan nan nan nan nan nan nan nan nan nan nan nan nan nan nan nan nan nan nan nan nan nan nan nan nan nan nan nan nan nan nan nan nan nan nan
nan nan nan nan nan nan nan nan nan nan nan nan nan nan nan nan nan nan nan nan nan nan nan 46 nan nan nan nan nan nan nan nan nan nan nan nan nan nan nan nan nan nan nan nan nan
nan nan nan nan nan nan nan nan nan nan nan nan nan nan nan nan nan nan nan nan nan nan nan nan nan nan nan nan nan nan nan nan nan nan nan nan nan nan nan nan nan nan nan nan nan
nan nan nan nan nan nan nan nan nan nan nan nan nan nan nan nan nan nan nan nan nan nan nan nan nan nan nan nan nan nan nan nan nan nan nan nan nan nan nan nan nan nan nan nan nan
Wind_Direction
261 255 251 248 244 243 237 229 234 234 234 235 236 238 235 nan nan nan nan nan nan nan nan nan nan nan nan nan nan nan nan nan nan nan nan nan nan nan nan nan nan nan nan nan nan
262 255 249 248 243 240 235 229 224 233 232 231 234 237 240 236 nan nan nan nan nan nan nan nan nan nan nan nan nan nan nan nan nan nan nan nan nan nan nan nan nan nan nan nan nan
260 254 248 245 244 237 233 227 222 224 232 233 234 236 238 233 nan nan nan 226 nan nan nan nan nan nan nan nan nan nan nan nan nan nan nan nan nan nan nan nan nan nan nan nan nan
257 254 247 244 240 236 232 224 221 221 228 230 235 237 237 nan nan nan nan 233 nan nan nan nan nan nan nan nan nan nan nan nan nan nan nan nan nan nan nan nan nan nan nan nan nan
254 255 249 242 239 232 230 224 218 217 223 230 231 238 nan nan nan nan nan 236 nan nan nan nan nan nan nan nan nan nan nan nan nan nan nan nan nan nan nan nan nan nan nan nan nan
251 251 248 243 237 231 228 225 219 218 217 224 236 238 nan nan nan 228 230 235 nan nan nan nan nan nan nan nan nan nan nan nan nan nan nan nan nan nan nan nan nan nan nan nan nan
249 247 245 242 238 231 224 225 221 216 216 222 236 231 nan nan nan 228 233 nan nan nan nan nan nan nan nan nan nan nan nan nan nan nan nan nan nan nan nan nan nan nan nan nan nan
248 246 243 241 239 232 227 225 223 218 217 219 234 224 nan nan nan 229 225 nan nan nan nan nan nan nan nan nan nan nan nan nan nan nan nan nan nan nan nan nan nan nan nan nan nan
246 245 240 239 237 234 230 224 221 220 218 222 223 221 nan nan nan nan nan nan nan nan nan nan nan nan nan nan nan nan nan nan nan nan nan nan nan nan nan nan nan nan nan nan nan
238 241 238 238 235 235 232 226 221 218 218 217 215 216 nan nan nan nan nan nan nan nan nan nan nan nan nan nan nan nan nan nan nan nan nan nan nan nan nan nan nan nan nan nan nan
232 236 236 235 234 234 228 218 nan nan nan nan nan nan nan nan nan nan nan nan nan nan nan nan nan nan nan nan nan nan nan nan nan nan nan nan nan nan nan nan nan nan nan nan nan
235 234 235 233 232 234 nan nan nan nan nan nan nan nan nan nan nan nan nan nan nan nan nan nan nan nan nan nan nan nan nan nan nan nan nan nan nan nan nan nan nan nan nan nan nan
232 235 236 233 230 224 nan nan nan nan nan nan nan nan nan nan nan nan nan nan nan nan nan nan nan nan nan nan nan nan nan nan nan nan nan nan nan nan nan nan nan nan nan nan nan
235 234 233 235 222 nan nan nan nan nan nan nan nan nan nan nan nan nan nan nan nan nan nan nan nan nan nan nan nan nan nan nan nan nan nan nan nan nan nan nan nan nan nan nan nan
232 235 232 nan nan nan nan nan nan nan nan nan nan nan nan nan nan nan nan nan nan nan nan nan nan nan nan nan nan nan nan nan nan nan nan nan nan nan nan nan nan nan nan nan nan
232 232 231 nan nan nan nan nan nan nan nan nan nan nan nan nan nan nan nan nan nan nan nan nan nan nan nan nan nan nan nan nan nan nan nan nan nan nan nan nan nan nan nan nan nan
235 230 nan nan nan nan nan nan nan nan nan nan nan nan nan nan nan nan nan nan nan nan nan nan nan nan nan nan nan nan nan nan nan nan nan nan nan nan nan nan nan nan nan nan nan
239 228 nan nan nan nan nan nan nan nan nan nan nan nan nan nan nan nan nan nan nan nan nan nan nan nan nan nan nan nan nan nan nan nan nan nan nan nan nan nan nan nan nan nan nan
229 nan nan nan nan nan nan nan nan nan nan nan nan nan nan nan nan nan nan nan nan nan nan nan nan nan nan nan nan nan nan nan nan nan nan nan nan nan nan nan nan nan nan nan nan
nan nan nan nan nan nan nan nan nan nan nan nan nan nan nan nan nan nan nan nan nan nan nan nan nan nan nan nan nan nan nan nan nan nan nan nan nan nan nan nan nan nan nan nan nan
nan nan nan nan nan nan nan nan nan nan nan nan nan nan nan nan nan nan nan nan nan nan nan nan nan nan nan nan nan nan nan nan nan nan nan nan nan nan nan nan nan nan nan nan nan
nan nan nan nan nan nan nan nan nan nan nan nan nan nan nan nan nan nan nan nan nan nan nan nan nan nan nan nan nan nan nan nan nan nan nan nan nan nan nan nan nan nan nan nan nan
nan nan nan nan nan nan nan nan nan nan nan nan nan nan nan nan nan nan nan nan nan nan nan nan nan nan nan nan nan nan nan nan nan nan nan nan nan nan nan nan nan nan nan nan nan
nan nan nan nan nan nan nan nan nan nan nan nan nan nan nan nan nan nan nan nan nan nan nan nan nan nan nan nan nan nan nan nan nan nan nan nan nan nan nan nan nan nan nan nan nan
nan nan nan nan nan nan nan nan nan nan nan nan nan nan nan nan nan nan nan nan nan nan nan 228 nan nan nan nan nan nan nan nan nan nan nan nan nan nan nan nan nan nan nan nan nan
nan nan nan nan nan nan nan nan nan nan nan nan nan nan nan nan nan nan nan nan nan nan nan nan nan nan nan nan nan nan nan nan nan nan nan nan nan nan nan nan nan nan nan nan nan
nan nan nan nan nan nan nan nan nan nan nan nan nan nan nan nan nan nan nan nan nan nan nan nan nan nan nan nan nan nan nan nan nan nan nan nan nan nan nan nan nan nan nan nan nan